[[{"header":{"parameterUnit":"m.s-1","parameterCategory":1,"la1":30.2991,"la2":30.254,"lo1":-89.0895,"lo2":-89.0444,"dy":0.0017,"dx":0.0017,"nx":28,"ny":28,"refTime":"2024-08-09T21:00:00:Z","depth":0,"parameterNumber":2,"parameterNumberName":"U-component_of_WINDS"},"data":[0,0,0,0,0,0,0,0,0,0,0,0,0,0,0,0,0,0,0,0,0,0,0,0,0,0,0,0,0,0,0,0,0,0,0,0,0,0,0,0,0,0,0,0,0,0,0,0,0,0,0,0,0,0,0,0,0,0,-2.1865,-2.1865,0,-2.1855,-2.1855,-2.1855,-2.1823,-2.1822,-2.1821,-2.1821,-2.1811,-2.1811,-2.1811,0,0,0,0,0,0,0,0,0,0,0,0,0,-2.1857,-2.1857,-2.1865,-2.1865,-2.1865,-2.1855,-2.1855,-2.1855,-2.1823,-2.1822,-2.1821,-2.182,-2.181,-2.1811,-2.1811,0,0,0,0,0,0,0,0,0,0,0,0,0,-2.1855,-2.1857,-2.1865,-2.1848,-2.1846,-2.1855,-2.1855,-2.1855,-2.1823,-2.1822,-2.1821,-2.182,-2.181,-2.1811,-2.1811,-2.1836,0,0,-2.1813,-2.1814,0,0,0,0,0,0,0,0,-2.1855,-2.1855,-2.185,-2.1849,-2.1847,-2.1839,-2.1848,-2.1849,-2.1823,-2.1832,-2.1821,-2.1819,-2.1821,-2.1821,-2.1821,-2.1836,-2.1835,-2.1813,-2.1814,-2.1814,-2.1814,0,0,0,0,0,0,0,-2.1855,-2.1856,-2.1861,-2.185,-2.1848,-2.1841,-2.1839,-2.1848,-2.1832,-2.1831,-2.1829,-2.1828,-2.182,-2.1821,-2.1821,-2.1835,-2.1813,-2.1814,-2.1814,-2.1814,-2.1871,-2.1872,0,0,0,0,0,0,-2.1858,-2.1856,-2.1861,-2.1861,-2.1849,-2.1842,-2.184,-2.1843,-2.1832,-2.183,-2.1829,-2.1826,-2.182,-2.182,-2.182,-2.1849,-2.1814,-2.1814,-2.1815,-2.187,-2.1871,-2.1873,0,0,0,0,0,0,-2.1858,-2.1859,-2.1862,-2.1858,-2.1857,-2.1843,-2.1846,-2.1843,-2.1844,-2.1831,-2.1828,-2.1832,-2.1819,-2.1819,-2.1833,-2.1849,-2.1815,-2.1815,-2.1869,-2.187,-2.1872,-2.1908,0,0,0,0,0,0,-2.1858,-2.1859,-2.1868,-2.1858,-2.1858,-2.1875,-2.1847,-2.1844,-2.1845,-2.1842,-2.1833,-2.1831,-2.1818,-2.1832,-2.1833,-2.1849,-2.1816,-2.1867,-2.1869,-2.1872,-2.1905,-2.1911,-2.1915,0,0,0,0,0,-2.1858,-2.1878,-2.1869,-2.1869,-2.1869,-2.1875,-2.1875,-2.1861,-2.1846,-2.1856,-2.1847,-2.1831,-2.1847,-2.1834,-2.1835,-2.1851,-2.1866,-2.1869,-2.1871,-2.1903,-2.191,-2.1915,0,0,0,0,0,0,-2.189,-2.1877,-2.1866,-2.1884,-2.1881,-2.187,-2.1881,-2.1868,-2.1869,-2.1866,-2.1848,-2.1846,-2.1862,-2.1858,-2.1844,-2.1875,-2.1854,-2.1857,-2.1877,-2.1884,-2.1888,-2.189,-2.1816,0,0,0,0,0,-2.19,-2.1906,-2.1894,-2.1911,-2.191,-2.1896,-2.1898,-2.1887,-2.1884,-2.1882,-2.1875,-2.1872,-2.1876,-2.1879,-2.1883,-2.1904,-2.1902,-2.1916,-2.1921,-2.1925,-2.1928,-2.194,-2.1946,-2.1881,-2.1881,-2.1881,0,0,-2.1919,-2.1912,-2.1917,-2.1917,-2.1914,-2.1921,-2.1895,-2.1904,-2.1909,-2.1883,-2.1896,-2.1891,-2.1886,-2.1904,-2.1912,-2.1901,-2.1945,-2.1928,-2.1932,-2.1932,-2.1943,-2.195,-2.1955,-2.1883,-2.1883,-2.1882,0,0,-2.1958,-2.1954,-2.1968,-2.1965,-2.196,-2.1951,-2.1954,-2.1945,-2.1941,-2.1953,-2.1934,-2.194,-2.1948,-2.1946,-2.1946,-2.1985,-2.1971,-2.1987,-2.2013,-2.2025,-2.203,-2.2035,-2.205,-2.2055,-2.1989,-2.199,-2.199,0,-2.1983,-2.1993,-2.1977,-2.1987,-2.1988,-2.1965,-2.198,-2.1978,-2.1974,-2.1976,-2.1963,-2.1973,-2.1968,-2.1986,-2.1996,-2.1996,-2.2,-2.1988,-2.2031,-2.2035,-2.2039,-2.2053,-2.2059,-2.1992,-2.1991,-2.1991,-2.1991,0,-2.2025,-2.2032,-2.2044,-2.2042,-2.2044,-2.2056,-2.2042,-2.2046,-2.2035,-2.2027,-2.204,-2.2034,-2.2036,-2.2039,-2.2028,-2.2055,-2.2049,-2.2034,-2.2013,-2.2048,-2.2061,-2.2066,-2.1994,-2.1994,-2.1993,-2.1993,0,0,-2.2085,-2.2073,-2.2078,-2.2077,-2.207,-2.2076,-2.2087,-2.2089,-2.2094,-2.2092,-2.2102,-2.2109,-2.2095,-2.2095,-2.2084,-2.2094,-2.2127,-2.2078,-2.2078,-2.2088,-2.2158,-2.217,-2.2177,-2.2117,-2.2118,-2.2119,-2.2159,0,-2.2123,-2.2142,-2.2128,-2.215,-2.2157,-2.2135,-2.2146,-2.2143,-2.2136,-2.2141,-2.2133,-2.2139,-2.212,-2.212,-2.2129,-2.2121,-2.2141,-2.2118,-2.2127,-2.2127,-2.213,-2.2183,-2.2196,-2.2234,-2.2164,-2.2165,-2.2165,0,-2.217,-2.2171,-2.2194,-2.2186,-2.2189,-2.2198,-2.2199,-2.2204,-2.2201,-2.2195,-2.2195,-2.2181,-2.2192,-2.2171,-2.2186,-2.2171,-2.2174,-2.2171,-2.2172,-2.2173,-2.2149,-2.2187,-2.2246,-2.2252,-2.2173,-2.2172,-2.2172,0,-2.2213,-2.222,-2.2235,-2.2234,-2.2226,-2.2233,-2.223,-2.2225,-2.2227,-2.2228,-2.223,-2.2232,-2.2233,-2.2235,-2.2223,-2.2208,-2.224,-2.2217,-2.2236,-2.2237,-2.2245,-2.2245,-2.2307,-2.2245,-2.2245,-2.2245,-2.2245,0,-2.2258,-2.2273,-2.2254,-2.2263,-2.228,-2.2263,-2.228,-2.2274,-2.2271,-2.2279,-2.226,-2.2268,-2.2249,-2.2256,-2.2245,-2.2261,-2.2261,-2.2257,-2.2255,-2.226,-2.226,-2.2262,-2.2259,-2.2246,-2.2246,-2.2246,-2.2245,0,-2.2309,-2.2297,-2.2312,-2.2302,-2.23,-2.2313,-2.2305,-2.2314,-2.2305,-2.2316,-2.2317,-2.2304,-2.2311,-2.2298,-2.2302,-2.2295,-2.2317,-2.231,-2.2319,-2.2317,-2.2337,-2.2336,-2.2403,-2.2411,-2.2343,-2.2344,-2.2345,0,-2.2339,-2.235,-2.2342,-2.2346,-2.2344,-2.2351,-2.2354,-2.2338,-2.2341,-2.2338,-2.2347,-2.2352,-2.2355,-2.2366,-2.2358,-2.2361,-2.2354,-2.2378,-2.2355,-2.236,-2.2356,-2.2356,-2.2358,-2.2383,-2.2383,-2.2384,-2.2385,0,-2.2394,-2.2387,-2.2392,-2.2394,-2.2398,-2.2399,-2.2399,-2.2403,-2.2387,-2.2391,-2.2398,-2.24,-2.2405,-2.2411,-2.2412,-2.2409,-2.2395,-2.2392,-2.2397,-2.2403,-2.2408,-2.2406,-2.2333,-2.2391,-2.239,-2.239,-2.2389,-2.2389,-2.2436,-2.2445,-2.2442,-2.2447,-2.2446,-2.2446,-2.2454,-2.2447,-2.2452,-2.2455,-2.2445,-2.2454,-2.2451,-2.2451,-2.245,-2.2457,-2.2446,-2.2453,-2.2455,-2.2457,-2.2461,-2.2406,-2.2457,-2.2456,-2.2456,-2.2456,-2.2456,0,-2.2491,-2.2488,-2.2493,-2.2494,-2.2499,-2.2484,-2.2483,-2.2488,-2.2497,-2.2495,-2.2498,-2.2506,-2.2511,-2.2503,-2.2507,-2.2514,-2.2508,-2.2516,-2.2516,-2.2516,-2.2469,-2.2465,-2.2521,-2.2521,-2.2521,-2.2521,-2.2521,-2.2521,-2.252,-2.2536,-2.2529,-2.2544,-2.254,-2.2549,-2.255,-2.2551,-2.2549,-2.2559,-2.2563,-2.2558,-2.2553,-2.2557,-2.2561,-2.2559,-2.2562,-2.2572,-2.2568,-2.2525,-2.2519,-2.2513,-2.2509,-2.2573,-2.2573,-2.2613,-2.2614,-2.2614]},{"header":{"parameterUnit":"m.s-1","parameterCategory":1,"la1":30.2991,"la2":30.254,"lo1":-89.0895,"lo2":-89.0444,"dy":0.0017,"dx":0.0017,"nx":28,"ny":28,"refTime":"2024-08-09T21:00:00:Z","depth":0,"parameterNumber":3,"parameterNumberName":"V-component_of_WINDS"},"data":[0,0,0,0,0,0,0,0,0,0,0,0,0,0,0,0,0,0,0,0,0,0,0,0,0,0,0,0,0,0,0,0,0,0,0,0,0,0,0,0,0,0,0,0,0,0,0,0,0,0,0,0,0,0,0,0,0,0,-3.0775,-3.0775,0,-3.0769,-3.0769,-3.0768,-3.0726,-3.0725,-3.0724,-3.0723,-3.0717,-3.0717,-3.0718,0,0,0,0,0,0,0,0,0,0,0,0,0,-3.075,-3.075,-3.0775,-3.0775,-3.0775,-3.0769,-3.0769,-3.0768,-3.0726,-3.0725,-3.0724,-3.0722,-3.0716,-3.0717,-3.0718,0,0,0,0,0,0,0,0,0,0,0,0,0,-3.0754,-3.0751,-3.0775,-3.0753,-3.0751,-3.0769,-3.0769,-3.0768,-3.0726,-3.0725,-3.0723,-3.0722,-3.0716,-3.0717,-3.0718,-3.0757,0,0,-3.0722,-3.0722,0,0,0,0,0,0,0,0,-3.0754,-3.0755,-3.0756,-3.0754,-3.0752,-3.0746,-3.0757,-3.0765,-3.0727,-3.0736,-3.0723,-3.0721,-3.0728,-3.0728,-3.073,-3.0757,-3.0756,-3.0722,-3.0723,-3.0723,-3.0724,0,0,0,0,0,0,0,-3.0753,-3.0755,-3.0772,-3.0756,-3.0754,-3.0743,-3.0742,-3.0759,-3.074,-3.0735,-3.0732,-3.0731,-3.0726,-3.0729,-3.073,-3.0756,-3.0722,-3.0723,-3.0724,-3.0724,-3.0815,-3.0816,0,0,0,0,0,0,-3.0756,-3.0755,-3.0772,-3.0772,-3.0749,-3.0745,-3.0744,-3.075,-3.074,-3.0737,-3.0733,-3.073,-3.0728,-3.0728,-3.0729,-3.0775,-3.0723,-3.0724,-3.0725,-3.0813,-3.0815,-3.0817,0,0,0,0,0,0,-3.0756,-3.0758,-3.0773,-3.0763,-3.0764,-3.0747,-3.0754,-3.0751,-3.0753,-3.0739,-3.0735,-3.0739,-3.0727,-3.0728,-3.0751,-3.0774,-3.0725,-3.0726,-3.0811,-3.0814,-3.0816,-3.0865,0,0,0,0,0,0,-3.0755,-3.0758,-3.0773,-3.0763,-3.0764,-3.0794,-3.0756,-3.0752,-3.0755,-3.0751,-3.0744,-3.0741,-3.0725,-3.0749,-3.0752,-3.0774,-3.0727,-3.0809,-3.0812,-3.0815,-3.0861,-3.0869,-3.0876,0,0,0,0,0,-3.0755,-3.0787,-3.0774,-3.0776,-3.0782,-3.0796,-3.0796,-3.0778,-3.0757,-3.0772,-3.0763,-3.0741,-3.0771,-3.0752,-3.0754,-3.0778,-3.0807,-3.0811,-3.0815,-3.0858,-3.0867,-3.0875,0,0,0,0,0,0,-3.0799,-3.0785,-3.0771,-3.08,-3.08,-3.0788,-3.0806,-3.0788,-3.0793,-3.0789,-3.0766,-3.0764,-3.0791,-3.0786,-3.0766,-3.0815,-3.0785,-3.079,-3.0817,-3.0826,-3.0833,-3.0834,-3.0728,0,0,0,0,0,-3.0812,-3.0824,-3.0811,-3.0839,-3.0839,-3.0823,-3.0828,-3.0814,-3.0812,-3.0812,-3.0804,-3.0803,-3.0812,-3.0819,-3.0826,-3.086,-3.0858,-3.0878,-3.0885,-3.0891,-3.0895,-3.0914,-3.0922,-3.0829,-3.0829,-3.0829,0,0,-3.084,-3.0834,-3.0843,-3.0848,-3.0846,-3.0859,-3.0823,-3.0838,-3.0848,-3.0814,-3.0835,-3.083,-3.0827,-3.0856,-3.0869,-3.0853,-3.092,-3.0896,-3.09,-3.0902,-3.0919,-3.0927,-3.0935,-3.0832,-3.0832,-3.0831,0,0,-3.0897,-3.0893,-3.0916,-3.0915,-3.0912,-3.0901,-3.0907,-3.0898,-3.0893,-3.0915,-3.0889,-3.0901,-3.0916,-3.0916,-3.0918,-3.0975,-3.0956,-3.0978,-3.1016,-3.1034,-3.1042,-3.1048,-3.1069,-3.1077,-3.0983,-3.0983,-3.0983,0,-3.0932,-3.0951,-3.093,-3.0948,-3.0951,-3.0921,-3.0944,-3.0944,-3.0944,-3.0947,-3.0929,-3.0949,-3.0945,-3.0974,-3.0988,-3.0991,-3.0997,-3.098,-3.1042,-3.1048,-3.1054,-3.1074,-3.1082,-3.0986,-3.0985,-3.0985,-3.0985,0,-3.0994,-3.1008,-3.1027,-3.1028,-3.1033,-3.1053,-3.1036,-3.1044,-3.103,-3.102,-3.1043,-3.1037,-3.1043,-3.1049,-3.1034,-3.1076,-3.1067,-3.1046,-3.1016,-3.1066,-3.1085,-3.1092,-3.099,-3.0989,-3.0988,-3.0987,0,0,-3.1079,-3.1069,-3.1077,-3.1077,-3.1072,-3.1082,-3.1101,-3.1107,-3.1115,-3.1115,-3.1131,-3.1146,-3.1127,-3.1129,-3.1115,-3.1131,-3.1178,-3.1108,-3.1108,-3.1122,-3.1224,-3.124,-3.125,-3.1165,-3.1166,-3.1167,-3.1225,0,-3.1135,-3.1168,-3.115,-3.1185,-3.1198,-3.1169,-3.1186,-3.1185,-3.1177,-3.1186,-3.1177,-3.1188,-3.1162,-3.1163,-3.1178,-3.1169,-3.1198,-3.1165,-3.118,-3.1181,-3.1182,-3.1259,-3.1276,-3.1331,-3.1232,-3.1233,-3.1234,0,-3.1205,-3.1209,-3.1245,-3.1238,-3.1243,-3.1258,-3.1263,-3.1273,-3.1271,-3.1264,-3.1267,-3.1248,-3.1267,-3.1236,-3.1262,-3.1239,-3.1244,-3.1241,-3.1243,-3.1244,-3.1211,-3.1264,-3.1347,-3.1356,-3.1245,-3.1244,-3.1243,0,-3.1265,-3.1279,-3.1303,-3.1304,-3.1296,-3.1308,-3.1305,-3.1302,-3.1307,-3.1311,-3.1314,-3.132,-3.1324,-3.1329,-3.1313,-3.1292,-3.1341,-3.1309,-3.1336,-3.1337,-3.1348,-3.1348,-3.1435,-3.135,-3.135,-3.135,-3.135,0,-3.1329,-3.1353,-3.133,-3.1345,-3.1371,-3.135,-3.1376,-3.137,-3.1367,-3.1381,-3.1356,-3.1369,-3.1347,-3.1358,-3.1345,-3.1369,-3.137,-3.1365,-3.1362,-3.1368,-3.1369,-3.1372,-3.1368,-3.1352,-3.1352,-3.1351,-3.1351,0,-3.1401,-3.1386,-3.1411,-3.1402,-3.14,-3.1419,-3.1411,-3.1425,-3.1415,-3.1432,-3.1435,-3.142,-3.1432,-3.1416,-3.1426,-3.1417,-3.145,-3.144,-3.1451,-3.1448,-3.1477,-3.1475,-3.157,-3.1582,-3.1488,-3.1489,-3.149,0,-3.1444,-3.1461,-3.1454,-3.1461,-3.146,-3.1472,-3.1477,-3.1458,-3.1464,-3.1464,-3.1477,-3.1487,-3.1494,-3.1513,-3.1503,-3.1511,-3.1502,-3.1535,-3.1503,-3.1509,-3.1504,-3.1503,-3.1505,-3.1542,-3.1543,-3.1544,-3.1544,0,-3.1521,-3.1513,-3.1522,-3.1529,-3.1536,-3.154,-3.1542,-3.1549,-3.1529,-3.1537,-3.1549,-3.1554,-3.1565,-3.1575,-3.158,-3.1577,-3.1558,-3.1554,-3.1561,-3.1568,-3.1574,-3.1572,-3.147,-3.1552,-3.1552,-3.1551,-3.1551,-3.155,-3.158,-3.1595,-3.1593,-3.1603,-3.1603,-3.1606,-3.1618,-3.161,-3.162,-3.1627,-3.1614,-3.1629,-3.1627,-3.1632,-3.1632,-3.1643,-3.1629,-3.1639,-3.1641,-3.1644,-3.1649,-3.1571,-3.1644,-3.1644,-3.1643,-3.1643,-3.1643,0,-3.1658,-3.1655,-3.1665,-3.1669,-3.1677,-3.1658,-3.166,-3.1668,-3.1682,-3.1682,-3.1689,-3.1703,-3.1713,-3.1703,-3.1711,-3.1723,-3.1714,-3.1725,-3.1725,-3.1725,-3.1661,-3.1655,-3.1732,-3.1732,-3.1732,-3.1732,-3.1732,-3.1732,-3.1699,-3.1723,-3.1715,-3.1739,-3.1736,-3.175,-3.1753,-3.1756,-3.1756,-3.1772,-3.178,-3.1774,-3.1771,-3.1778,-3.1786,-3.1783,-3.1788,-3.1803,-3.1797,-3.1738,-3.1729,-3.1721,-3.1715,-3.1804,-3.1804,-3.186,-3.186,-3.1861]}]]